This is the latest recevied weather packets stored in our database for station/object W4OTS. If no packets are shown the sender has not sent any weather packets the latest 1 day(s).
| Time | Temp. | Humidity | Pressure | Rain* | Wind** | Luminosity | Snow |
|---|---|---|---|---|---|---|---|
| 1778005190 | 25° C | 45% | 1017.4 hPa | 0 mm | 1.34 m/s, 121° | 631 W/m² | - |
| 1778004888 | 24.44° C | 45% | 1017.5 hPa | 0 mm | 0.45 m/s, 255° | 567 W/m² | - |
| 1778004584 | 23.89° C | 45% | 1017.9 hPa | 0 mm | 2.24 m/s, 187° | 471 W/m² | - |
| 1778004280 | 23.89° C | 47% | 1017.8 hPa | 0 mm | 1.34 m/s, 200° | 352 W/m² | - |
| 1778003978 | 24.44° C | 45% | 1017.8 hPa | 0 mm | 1.34 m/s, 140° | 448 W/m² | - |
| 1778003674 | 24.44° C | 46% | 1017.9 hPa | 0 mm | 1.79 m/s, 218° | 753 W/m² | - |
| 1778003370 | 23.33° C | 46% | 1018.2 hPa | 0 mm | 1.34 m/s, 259° | 485 W/m² | - |
| 1778003068 | 23.89° C | 45% | 1018.2 hPa | 0 mm | 0.89 m/s, 198° | 278 W/m² | - |
| 1778002764 | 23.89° C | 45% | 1017.8 hPa | 0 mm | 2.24 m/s, 203° | 597 W/m² | - |
| 1778002460 | 24.44° C | 47% | 1018.1 hPa | 0 mm | 0.89 m/s, 205° | 713 W/m² | - |
| 1778002157 | 24.44° C | 48% | 1017.9 hPa | 0 mm | 0.89 m/s, 226° | 664 W/m² | - |
| 1778001855 | 24.44° C | 45% | 1018.1 hPa | 0 mm | 1.79 m/s, 250° | 576 W/m² | - |
| 1778001554 | 23.89° C | 46% | 1018.1 hPa | 0 mm | 0.89 m/s, 249° | 769 W/m² | - |
| 1778001252 | 23.89° C | 47% | 1017.9 hPa | 0 mm | 1.34 m/s, 206° | 573 W/m² | - |
| 1778000948 | 24.44° C | 48% | 1017.7 hPa | 0 mm | 1.34 m/s, 168° | 496 W/m² | - |
| 1778000645 | 23.89° C | 50% | 1018.1 hPa | 0 mm | 0.89 m/s, 253° | 488 W/m² | - |
| 1778000340 | 23.89° C | 47% | 1018.1 hPa | 0 mm | 0.45 m/s, 253° | 616 W/m² | - |
| 1778000030 | 23.89° C | 48% | 1017.8 hPa | 0 mm | 0.89 m/s, 220° | 691 W/m² | - |
| 1777999726 | 24.44° C | 47% | 1018.3 hPa | 0 mm | 1.79 m/s, 204° | 724 W/m² | - |
| 1777999423 | 23.89° C | 49% | 1018.3 hPa | 0 mm | 0.45 m/s, 225° | 697 W/m² | - |
| 1777999121 | 23.33° C | 53% | 1018.3 hPa | 0 mm | 0.45 m/s, 249° | 661 W/m² | - |
| 1777998820 | 23.33° C | 51% | 1018.4 hPa | 0 mm | 1.79 m/s, 179° | 639 W/m² | - |
| 1777998518 | 22.78° C | 53% | 1018.4 hPa | 0 mm | 0.89 m/s, 160° | 647 W/m² | - |
| 1777998213 | 22.78° C | 53% | 1018.5 hPa | 0 mm | 0.45 m/s, 240° | 695 W/m² | - |
| 1777997911 | 22.78° C | 55% | 1018.4 hPa | 0 mm | 1.34 m/s, 207° | 643 W/m² | - |
* Rain latest hour (hover to see other rain measurements)
** Current wind speed in m/s (hover to see current wind gust speed)